When you browse on this site, cookies collect data to enhance your experience and personalize the content and advertising you see.
Visit our Privacy Policy to learn more. By continuing to use the site, you agree to this use of cookies and data.
  • en France
  • Liste des pays
  • À 7 jours
  • Température de l'eau
  • Carte satellitaire
  • Carte météo
  • Widgets météo
  • user-avatar
    Se connecter

    Météo par heure à Newcastle

    Ce jour, 14 Décembre, Vendredi

    Heure Température Précipitation Vent Pression Humidité
    00:00 +21°C° 0.5 mm 2 m/s 749 mmHg 96%
    01:00 +21°C° 0.5 mm 3 m/s 749 mmHg 96%
    02:00 +21°C° 0.1 mm 2 m/s 749 mmHg 96%
    03:00 +20°C° 0.1 mm 2 m/s 749 mmHg 96%
    04:00 +21°C° 0 mm 1 m/s 749 mmHg 97%
    05:00 +22°C° 0 mm 1 m/s 750 mmHg 93%
    06:00 +24°C° 0 mm 1 m/s 750 mmHg 89%
    07:00 +25°C° 0 mm 1 m/s 750 mmHg 86%
    08:00 +27°C° 0 mm 1 m/s 750 mmHg 74%
    09:00 +30°C° 0 mm 1 m/s 751 mmHg 63%
    10:00 +32°C° 0 mm 2 m/s 751 mmHg 52%
    11:00 +31°C° 0.6 mm 2 m/s 751 mmHg 58%
    12:00 +31°C° 0.6 mm 3 m/s 751 mmHg 63%
    13:00 +30°C° 0.6 mm 3 m/s 751 mmHg 69%
    14:00 +30°C° 1.2 mm 4 m/s 750 mmHg 70%
    15:00 +30°C° 1.2 mm 4 m/s 750 mmHg 71%
    16:00 +30°C° 1.2 mm 4 m/s 750 mmHg 72%
    17:00 +28°C° 0.2 mm 4 m/s 751 mmHg 77%
    18:00 +27°C° 0.2 mm 4 m/s 751 mmHg 82%
    19:00 +26°C° 0.2 mm 4 m/s 751 mmHg 87%
    20:00 +25°C° 0.5 mm 5 m/s 752 mmHg 89%
    21:00 +24°C° 0.5 mm 6 m/s 752 mmHg 92%
    22:00 +23°C° 0.5 mm 6 m/s 753 mmHg 95%
    23:00 +23°C° 0.1 mm 6 m/s 753 mmHg 95%

    Demain, 15 Décembre, Samedi

    Heure Température Précipitation Vent Pression Humidité
    00:00 +23°C° 0.1 mm 6 m/s 753 mmHg 95%
    01:00 +22°C° 0.1 mm 6 m/s 752 mmHg 95%
    02:00 +22°C° 0 mm 6 m/s 752 mmHg 95%
    03:00 +22°C° 0 mm 5 m/s 752 mmHg 95%
    04:00 +22°C° 0 mm 5 m/s 752 mmHg 95%
    05:00 +23°C° 0 mm 5 m/s 753 mmHg 91%
    06:00 +24°C° 0 mm 6 m/s 753 mmHg 86%
    07:00 +26°C° 0 mm 6 m/s 754 mmHg 82%
    08:00 +29°C° 0 mm 7 m/s 753 mmHg 72%
    09:00 +32°C° 0 mm 7 m/s 753 mmHg 63%
    10:00 +34°C° 0 mm 7 m/s 753 mmHg 53%
    11:00 +34°C° 2.2 mm 8 m/s 753 mmHg 57%
    12:00 +33°C° 2.2 mm 8 m/s 753 mmHg 60%
    13:00 +33°C° 2.2 mm 9 m/s 752 mmHg 63%
    14:00 +32°C° 2.7 mm 9 m/s 752 mmHg 67%
    15:00 +31°C° 2.7 mm 9 m/s 752 mmHg 70%
    16:00 +29°C° 2.7 mm 9 m/s 751 mmHg 74%
    17:00 +28°C° 1.5 mm 9 m/s 752 mmHg 78%
    18:00 +27°C° 1.5 mm 9 m/s 752 mmHg 82%
    19:00 +26°C° 1.5 mm 9 m/s 753 mmHg 86%
    20:00 +26°C° 0.6 mm 9 m/s 753 mmHg 86%
    21:00 +26°C° 0.6 mm 9 m/s 754 mmHg 87%
    22:00 +24°C° 0.6 mm 8 m/s 754 mmHg 87%
    23:00 +24°C° 0.1 mm 8 m/s 754 mmHg 89%

    Après-demain, 16 Décembre, Dimanche

    Heure Température Précipitation Vent Pression Humidité
    00:00 +23°C° 0.1 mm 7 m/s 754 mmHg 91%
    01:00 +23°C° 0.1 mm 6 m/s 754 mmHg 93%
    02:00 +22°C° 0 mm 6 m/s 754 mmHg 93%
    03:00 +22°C° 0 mm 6 m/s 755 mmHg 93%
    04:00 +22°C° 0 mm 5 m/s 755 mmHg 93%
    05:00 +23°C° 0 mm 5 m/s 755 mmHg 87%
    06:00 +26°C° 0 mm 5 m/s 755 mmHg 81%
    07:00 +27°C° 0 mm 5 m/s 756 mmHg 75%
    08:00 +29°C° 0 mm 5 m/s 756 mmHg 66%
    09:00 +32°C° 0 mm 5 m/s 756 mmHg 56%
    10:00 +35°C° 0 mm 5 m/s 756 mmHg 47%
    11:00 +35°C° 0 mm 5 m/s 755 mmHg 47%
    12:00 +35°C° 0 mm 6 m/s 755 mmHg 47%
    13:00 +35°C° 0 mm 6 m/s 754 mmHg 48%
    14:00 +34°C° 1.8 mm 7 m/s 754 mmHg 51%
    15:00 +33°C° 1.8 mm 7 m/s 754 mmHg 55%
    16:00 +33°C° 1.8 mm 7 m/s 754 mmHg 59%
    17:00 +30°C° 1.9 mm 7 m/s 754 mmHg 68%
    18:00 +28°C° 1.9 mm 7 m/s 754 mmHg 77%
    19:00 +26°C° 1.9 mm 7 m/s 754 mmHg 86%
    20:00 +26°C° 0.1 mm 7 m/s 755 mmHg 86%
    21:00 +24°C° 0.1 mm 7 m/s 756 mmHg 87%
    22:00 +24°C° 0.1 mm 7 m/s 756 mmHg 87%
    23:00 +24°C° 0 mm 6 m/s 756 mmHg 87%

    17 Décembre, Lundi

    Heure Température Précipitation Vent Pression Humidité
    00:00 +23°C° 0 mm 5 m/s 755 mmHg 88%
    01:00 +23°C° 0 mm 4 m/s 755 mmHg 88%
    02:00 +22°C° 0 mm 4 m/s 755 mmHg 89%
    03:00 +22°C° 0 mm 4 m/s 755 mmHg 89%
    04:00 +21°C° 0 mm 4 m/s 755 mmHg 90%
    05:00 +23°C° 0 mm 4 m/s 755 mmHg 83%
    06:00 +25°C° 0 mm 4 m/s 756 mmHg 76%
    07:00 +27°C° 0 mm 3 m/s 756 mmHg 69%
    08:00 +29°C° 0 mm 3 m/s 756 mmHg 61%
    09:00 +33°C° 0 mm 3 m/s 756 mmHg 52%
    10:00 +35°C° 0 mm 4 m/s 756 mmHg 43%
    11:00 +36°C° 0 mm 4 m/s 756 mmHg 40%
    12:00 +37°C° 0 mm 5 m/s 755 mmHg 37%
    13:00 +39°C° 0 mm 5 m/s 755 mmHg 33%
    14:00 +36°C° 0 mm 5 m/s 755 mmHg 40%
    15:00 +35°C° 0 mm 5 m/s 755 mmHg 47%
    16:00 +33°C° 0 mm 6 m/s 754 mmHg 54%
    17:00 +32°C° 0 mm 6 m/s 755 mmHg 58%
    18:00 +30°C° 0 mm 6 m/s 755 mmHg 63%
    19:00 +29°C° 0 mm 6 m/s 756 mmHg 67%
    20:00 +29°C° 0 mm 6 m/s 756 mmHg 70%
    21:00 +28°C° 0 mm 6 m/s 756 mmHg 73%
    22:00 +27°C° 0 mm 5 m/s 757 mmHg 76%
    23:00 +27°C° 0 mm 5 m/s 757 mmHg 78%

    18 Décembre, Mardi

    Heure Température Précipitation Vent Pression Humidité
    00:00 +26°C° 0 mm 4 m/s 756 mmHg 79%
    01:00 +25°C° 0 mm 3 m/s 756 mmHg 81%
    02:00 +25°C° 0 mm 3 m/s 756 mmHg 81%
    03:00 +25°C° 0 mm 2 m/s 757 mmHg 80%
    04:00 +25°C° 0 mm 2 m/s 757 mmHg 80%
    05:00 +26°C° 0 mm 2 m/s 757 mmHg 79%
    06:00 +26°C° 0 mm 3 m/s 758 mmHg 78%
    07:00 +27°C° 0 mm 4 m/s 759 mmHg 77%
    08:00 +29°C° 0 mm 4 m/s 759 mmHg 70%
    09:00 +32°C° 0 mm 4 m/s 759 mmHg 63%
    10:00 +34°C° 0 mm 4 m/s 759 mmHg 55%
    11:00 +35°C° 0 mm 4 m/s 758 mmHg 52%
    12:00 +36°C° 0 mm 4 m/s 758 mmHg 49%
    13:00 +37°C° 0 mm 4 m/s 757 mmHg 45%
    14:00 +35°C° 0 mm 4 m/s 757 mmHg 52%
    15:00 +33°C° 0 mm 4 m/s 757 mmHg 58%
    16:00 +30°C° 0 mm 4 m/s 757 mmHg 64%
    17:00 +28°C° 0 mm 3 m/s 758 mmHg 71%
    18:00 +27°C° 0 mm 2 m/s 758 mmHg 78%
    19:00 +25°C° 0 mm 2 m/s 759 mmHg 86%
    20:00 +25°C° 0 mm 2 m/s 759 mmHg 88%
    21:00 +24°C° 0 mm 3 m/s 760 mmHg 90%
    22:00 +24°C° 0 mm 3 m/s 760 mmHg 92%
    23:00 +24°C° 0 mm 3 m/s 760 mmHg 92%

    19 Décembre, Mercredi

    Heure Température Précipitation Vent Pression Humidité
    00:00 +24°C° 0 mm 3 m/s 760 mmHg 92%
    01:00 +23°C° 0 mm 4 m/s 760 mmHg 92%
    02:00 +24°C° 0 mm 3 m/s 760 mmHg 92%
    03:00 +22°C° 0 mm 3 m/s 760 mmHg 92%
    04:00 +22°C° 0 mm 3 m/s 759 mmHg 92%
    05:00 +22°C° 0 mm 3 m/s 760 mmHg 91%
    06:00 +22°C° 0 mm 3 m/s 760 mmHg 90%
    07:00 +22°C° 0 mm 3 m/s 761 mmHg 89%
    08:00 +25°C° 0 mm 3 m/s 760 mmHg 80%
    09:00 +27°C° 0 mm 3 m/s 760 mmHg 72%
    10:00 +29°C° 0 mm 3 m/s 760 mmHg 64%
    11:00 +30°C° 0 mm 3 m/s 759 mmHg 61%
    12:00 +31°C° 0 mm 2 m/s 759 mmHg 59%
    13:00 +32°C° 0 mm 2 m/s 758 mmHg 56%
    14:00 +33°C° 0 mm 3 m/s 757 mmHg 57%
    15:00 +33°C° 0 mm 4 m/s 756 mmHg 58%
    16:00 +33°C° 0 mm 4 m/s 756 mmHg 59%
    17:00 +30°C° 2.2 mm 4 m/s 756 mmHg 71%
    18:00 +28°C° 2.2 mm 3 m/s 757 mmHg 83%
    19:00 +25°C° 2.2 mm 3 m/s 757 mmHg 94%
    20:00 +25°C° 5.6 mm 3 m/s 757 mmHg 95%
    21:00 +25°C° 5.6 mm 3 m/s 758 mmHg 97%
    22:00 +24°C° 5.6 mm 3 m/s 758 mmHg 98%
    23:00 +23°C° 3.4 mm 4 m/s 757 mmHg 97%
    Voir plus